Weather in Mõisaküla

Estonia     58°05′33″N   25°10′55″E
В апреле 2022 года жителям России запретили посещать сайт meteo.paraplan.net по решению Генеральной прокуратуры. Аудитория сайта уменьшилась в 10 раз. Владельцы сайта не видят смысла в поддержке погодного сервера в таких условиях. Сайт будет закрыт в октябре.
temp.,
°C
wind,
m/s
gust,
m/s
humid.,
%
clouds,
%
prec.,
mm/h
press.,
hPa
HPBL,
m
3 october, mon
mon300:00+6ene2789100 0.0 1008165
03:00+6nne2889100 0.0 1008203
06:00+7nne41186100 0.0 1007595
09:00+7nne5137897 0.0 10071020
12:00+10n71563100 0.0 10061316
15:00+10n71667100 0.0 10041502
18:00+9n71773100 0.3 10041475
21:00+8n81678100 0.6 10031344
4 october, tue
tue400:00+8n71684100 1.1 10021461
03:00+7n61392100 5.4 10011343
06:00+6n51193100 4.3 10011087
09:00+6n41195100 8.2 10021135
12:00+6nnw4993100 2.1 10041027
15:00+7nnw4893100 2.3 1005872
18:00+7nw41092100 0.3 1007749
21:00+7nw499387 0.3 1009462
5 october, wed
wed500:00+7wnw399262 0.0 1010406
03:00+4wnw28965 0.0 1011158
06:00+5w1196100 0.0 101210
09:00+7ssw2495100 0.0 1011129
12:00+9s279896 1.1 1011285
15:00+12ssw499497 1.1 1010675
18:00+13sw41191100 0.0 1009845
21:00+13wsw41093100 0.1 1010806
6 october, thu
thu600:00+13sw41097100 0.0 1010692
03:00+12sw4119471 0.0 1010571
06:00+10ssw4129516 0.0 1008442
09:00+11sw5149150 0.0 1008603
12:00+13wsw6139399 0.2 10081105
15:00+13w7137515 0.6 10101367
18:00+12wsw8157733 0.1 10121360
21:00+12wsw7157841 0.3 10131280
7 october, fri
fri700:00+12wsw7157637 0.0 10141291
03:00+12wsw8167765 0.2 10141460
06:00+12w81676100 0.4 10151435
09:00+11w7147846 0.6 10161308
12:00+14w712704 0.1 10171355
15:00+15wsw6116678 0.2 10171473
18:00+13wsw5127289 0.1 10161077
21:00+12sw6138281 0.1 1015995